GEFSSE_prec_meanprecacc_030.txt.gz
Total_Precipitation_Accumulation
0.00 0.00 0.00 0.00 0.00 0.00 0.00 0.00 0.00 0.00 0.00 0.00 0.01 0.02 0.01 0.02 0.02 0.03 0.04 0.08 0.11 0.07 0.06 0.08 0.06 0.05 0.04 0.04 0.04 0.05 0.03 0.02 0.01 0.02 0.04 0.07 0.07 0.05 0.05 0.06 0.05 0.09 0.07
0.00 0.00 0.00 0.00 0.00 0.00 0.00 0.00 0.00 0.00 0.01 0.01 0.01 0.02 0.02 0.03 0.03 0.04 0.06 0.10 0.13 0.09 0.08 0.10 0.12 0.14 0.11 0.10 0.09 0.09 0.04 0.01 0.00 0.00 0.01 0.03 0.04 0.02 0.01 0.04 0.05 0.12 0.13
0.00 0.00 0.00 0.00 0.00 0.00 0.00 0.00 0.00 0.00 0.01 0.01 0.01 0.02 0.02 0.04 0.05 0.07 0.09 0.09 0.11 0.13 0.13 0.12 0.22 0.24 0.21 0.19 0.16 0.14 0.09 0.03 0.00 0.00 0.01 0.03 0.05 0.04 0.01 0.02 0.02 0.02 0.05
0.00 0.00 0.00 0.00 0.00 0.00 0.00 0.00 0.00 0.00 0.01 0.01 0.01 0.01 0.03 0.04 0.05 0.08 0.12 0.13 0.16 0.24 0.27 0.29 0.35 0.33 0.28 0.23 0.19 0.15 0.13 0.07 0.01 0.00 0.02 0.05 0.08 0.09 0.03 0.01 0.01 0.01 0.01
0.00 0.00 0.00 0.00 0.00 0.00 0.00 0.00 0.00 0.00 0.01 0.01 0.02 0.01 0.02 0.03 0.05 0.07 0.10 0.14 0.20 0.30 0.30 0.29 0.32 0.30 0.26 0.23 0.18 0.19 0.21 0.13 0.04 0.01 0.02 0.04 0.08 0.15 0.08 0.05 0.04 0.02 0.01
0.00 0.00 0.00 0.00 0.00 0.00 0.00 0.00 0.00 0.00 0.01 0.01 0.02 0.02 0.02 0.02 0.04 0.06 0.08 0.09 0.14 0.20 0.20 0.22 0.25 0.24 0.22 0.20 0.15 0.16 0.23 0.20 0.08 0.01 0.02 0.04 0.08 0.18 0.11 0.05 0.04 0.03 0.02
0.00 0.00 0.00 0.00 0.00 0.00 0.00 0.00 0.00 0.00 0.01 0.01 0.02 0.03 0.03 0.03 0.03 0.03 0.04 0.04 0.06 0.08 0.11 0.17 0.22 0.26 0.25 0.20 0.14 0.16 0.24 0.20 0.06 0.04 0.04 0.03 0.05 0.12 0.11 0.05 0.02 0.02 0.01
0.00 0.00 0.00 0.00 0.01 0.01 0.01 0.00 0.01 0.01 0.01 0.01 0.02 0.03 0.03 0.04 0.04 0.04 0.03 0.02 0.03 0.04 0.06 0.11 0.19 0.35 0.34 0.22 0.19 0.23 0.24 0.13 0.04 0.02 0.02 0.03 0.03 0.09 0.15 0.12 0.05 0.02 0.01
0.00 0.00 0.00 0.00 0.00 0.01 0.01 0.02 0.03 0.04 0.04 0.03 0.03 0.04 0.04 0.04 0.04 0.05 0.05 0.04 0.04 0.03 0.04 0.07 0.15 0.34 0.35 0.27 0.27 0.31 0.22 0.07 0.02 0.01 0.01 0.02 0.03 0.10 0.18 0.14 0.07 0.03 0.01
0.00 0.00 0.00 0.00 0.00 0.00 0.01 0.04 0.06 0.07 0.06 0.06 0.05 0.04 0.04 0.03 0.03 0.03 0.02 0.02 0.03 0.04 0.04 0.04 0.07 0.20 0.27 0.28 0.36 0.33 0.13 0.03 0.01 0.00 0.01 0.01 0.04 0.14 0.24 0.20 0.09 0.03 0.02
0.00 0.00 0.00 0.00 0.00 0.00 0.01 0.02 0.04 0.05 0.05 0.05 0.05 0.05 0.06 0.04 0.03 0.02 0.01 0.01 0.02 0.03 0.05 0.05 0.06 0.13 0.20 0.22 0.27 0.20 0.05 0.02 0.02 0.01 0.00 0.01 0.04 0.14 0.25 0.21 0.12 0.05 0.03
0.00 0.00 0.00 0.00 0.00 0.00 0.00 0.01 0.02 0.03 0.03 0.04 0.04 0.06 0.08 0.09 0.09 0.07 0.04 0.03 0.04 0.05 0.06 0.07 0.10 0.12 0.11 0.10 0.20 0.15 0.07 0.07 0.07 0.03 0.02 0.01 0.05 0.13 0.22 0.22 0.17 0.08 0.03
0.00 0.00 0.00 0.00 0.00 0.00 0.00 0.00 0.01 0.02 0.04 0.06 0.07 0.10 0.14 0.16 0.14 0.11 0.08 0.07 0.06 0.06 0.05 0.06 0.07 0.05 0.05 0.15 0.28 0.22 0.16 0.14 0.09 0.05 0.01 0.01 0.04 0.11 0.19 0.22 0.21 0.14 0.07
0.00 0.00 0.00 0.00 0.00 0.00 0.00 0.00 0.00 0.00 0.02 0.04 0.07 0.09 0.11 0.12 0.11 0.09 0.07 0.06 0.06 0.07 0.07 0.07 0.05 0.05 0.08 0.12 0.15 0.14 0.11 0.10 0.08 0.05 0.02 0.00 0.02 0.06 0.13 0.19 0.20 0.19 0.12
0.00 0.00 0.00 0.00 0.00 0.00 0.00 0.00 0.00 0.00 0.00 0.01 0.02 0.03 0.04 0.05 0.06 0.06 0.04 0.03 0.03 0.04 0.06 0.07 0.06 0.07 0.09 0.10 0.09 0.08 0.08 0.07 0.06 0.05 0.03 0.00 0.00 0.03 0.08 0.15 0.16 0.16 0.15
0.00 0.00 0.00 0.00 0.00 0.00 0.00 0.00 0.00 0.00 0.00 0.00 0.01 0.01 0.01 0.01 0.02 0.02 0.01 0.01 0.01 0.02 0.03 0.05 0.06 0.06 0.08 0.10 0.09 0.08 0.08 0.06 0.04 0.04 0.03 0.01 0.00 0.01 0.06 0.13 0.16 0.14 0.14
0.00 0.00 0.00 0.00 0.00 0.00 0.00 0.00 0.00 0.00 0.00 0.00 0.00 0.00 0.00 0.00 0.00 0.00 0.01 0.01 0.00 0.01 0.05 0.10 0.13 0.15 0.15 0.17 0.16 0.17 0.15 0.12 0.10 0.10 0.09 0.06 0.03 0.02 0.05 0.13 0.17 0.17 0.17
0.00 0.00 0.00 0.00 0.00 0.00 0.00 0.00 0.00 0.00 0.00 0.00 0.00 0.00 0.00 0.01 0.02 0.02 0.01 0.01 0.01 0.01 0.05 0.10 0.17 0.20 0.20 0.22 0.22 0.25 0.26 0.25 0.20 0.19 0.19 0.14 0.10 0.06 0.05 0.08 0.17 0.21 0.27
0.00 0.00 0.00 0.00 0.00 0.00 0.00 0.00 0.00 0.00 0.00 0.00 0.00 0.00 0.00 0.01 0.02 0.03 0.03 0.03 0.02 0.03 0.05 0.09 0.12 0.17 0.20 0.24 0.26 0.28 0.33 0.35 0.32 0.27 0.23 0.21 0.18 0.12 0.08 0.07 0.11 0.17 0.27
0.00 0.00 0.00 0.00 0.00 0.00 0.00 0.00 0.00 0.00 0.00 0.00 0.00 0.00 0.00 0.00 0.01 0.01 0.02 0.03 0.04 0.06 0.08 0.10 0.13 0.15 0.18 0.24 0.29 0.29 0.33 0.36 0.35 0.31 0.28 0.29 0.28 0.20 0.14 0.11 0.09 0.09 0.14
0.00 0.00 0.00 0.00 0.00 0.00 0.00 0.00 0.00 0.00 0.00 0.00 0.00 0.00 0.00 0.00 0.00 0.00 0.00 0.01 0.02 0.04 0.07 0.10 0.10 0.11 0.12 0.16 0.20 0.19 0.20 0.23 0.27 0.26 0.25 0.27 0.31 0.32 0.28 0.22 0.17 0.12 0.10
0.00 0.00 0.00 0.00 0.00 0.00 0.00 0.00 0.00 0.00 0.00 0.00 0.00 0.00 0.00 0.00 0.00 0.00 0.00 0.00 0.00 0.00 0.01 0.01 0.03 0.04 0.04 0.07 0.13 0.16 0.14 0.15 0.16 0.17 0.18 0.22 0.27 0.33 0.34 0.33 0.30 0.24 0.17
0.00 0.00 0.00 0.00 0.00 0.00 0.00 0.00 0.00 0.00 0.00 0.00 0.00 0.00 0.00 0.00 0.00 0.00 0.00 0.00 0.00 0.00 0.00 0.00 0.01 0.02 0.02 0.03 0.06 0.10 0.10 0.08 0.11 0.11 0.14 0.16 0.19 0.20 0.22 0.25 0.26 0.27 0.25
0.00 0.00 0.00 0.00 0.00 0.00 0.00 0.00 0.00 0.00 0.00 0.00 0.00 0.00 0.00 0.00 0.00 0.00 0.00 0.00 0.00 0.00 0.00 0.01 0.01 0.01 0.01 0.02 0.03 0.04 0.05 0.05 0.06 0.06 0.05 0.05 0.07 0.08 0.10 0.11 0.13 0.15 0.17
0.00 0.00 0.00 0.00 0.00 0.00 0.00 0.00 0.00 0.00 0.00 0.00 0.00 0.00 0.00 0.00 0.00 0.00 0.00 0.01 0.01 0.01 0.01 0.01 0.01 0.01 0.02 0.02 0.02 0.02 0.02 0.02 0.04 0.05 0.02 0.01 0.01 0.03 0.05 0.07 0.08 0.10 0.12
0.00 0.00 0.00 0.00 0.00 0.00 0.00 0.00 0.00 0.00 0.00 0.00 0.00 0.00 0.00 0.00 0.00 0.01 0.01 0.01 0.01 0.01 0.01 0.02 0.02 0.02 0.02 0.03 0.03 0.02 0.02 0.01 0.01 0.01 0.02 0.03 0.02 0.01 0.02 0.03 0.04 0.06 0.09

GEFSSE_prec_meanprecacc_036.txt.gz
Total_Precipitation_Accumulation
0.00 0.00 0.01 0.01 0.00 0.00 0.00 0.00 0.00 0.00 0.00 0.01 0.02 0.03 0.03 0.03 0.03 0.04 0.05 0.09 0.12 0.08 0.07 0.10 0.07 0.06 0.05 0.04 0.05 0.06 0.04 0.03 0.02 0.03 0.07 0.10 0.08 0.05 0.05 0.06 0.05 0.09 0.07
0.00 0.00 0.01 0.01 0.00 0.00 0.00 0.00 0.00 0.01 0.01 0.01 0.01 0.02 0.02 0.03 0.04 0.05 0.07 0.11 0.15 0.10 0.09 0.11 0.13 0.14 0.12 0.11 0.10 0.10 0.05 0.02 0.01 0.01 0.03 0.06 0.06 0.03 0.02 0.04 0.05 0.12 0.13
0.00 0.01 0.01 0.01 0.01 0.00 0.00 0.00 0.00 0.00 0.01 0.01 0.01 0.02 0.03 0.04 0.06 0.07 0.10 0.10 0.13 0.16 0.15 0.15 0.25 0.27 0.24 0.21 0.19 0.16 0.11 0.03 0.01 0.00 0.01 0.07 0.08 0.05 0.01 0.02 0.03 0.02 0.05
0.00 0.01 0.01 0.02 0.02 0.01 0.01 0.01 0.00 0.00 0.01 0.01 0.01 0.01 0.03 0.04 0.06 0.09 0.13 0.15 0.18 0.27 0.30 0.33 0.40 0.38 0.33 0.28 0.24 0.20 0.18 0.09 0.02 0.00 0.02 0.06 0.10 0.10 0.03 0.02 0.02 0.01 0.01
0.00 0.01 0.01 0.02 0.03 0.03 0.02 0.01 0.01 0.01 0.01 0.02 0.02 0.01 0.02 0.04 0.06 0.09 0.12 0.17 0.23 0.33 0.34 0.33 0.37 0.35 0.32 0.29 0.25 0.27 0.30 0.20 0.06 0.01 0.02 0.05 0.10 0.16 0.08 0.05 0.05 0.02 0.01
0.00 0.00 0.01 0.03 0.03 0.04 0.04 0.03 0.03 0.02 0.02 0.03 0.03 0.03 0.03 0.03 0.05 0.08 0.10 0.12 0.16 0.23 0.24 0.28 0.31 0.30 0.28 0.26 0.21 0.25 0.34 0.29 0.11 0.02 0.03 0.04 0.09 0.19 0.13 0.05 0.04 0.03 0.02
0.00 0.00 0.00 0.02 0.03 0.04 0.05 0.05 0.04 0.04 0.04 0.04 0.05 0.06 0.05 0.05 0.06 0.06 0.07 0.07 0.08 0.10 0.14 0.22 0.29 0.33 0.31 0.25 0.20 0.25 0.33 0.26 0.09 0.07 0.06 0.05 0.08 0.14 0.17 0.09 0.03 0.02 0.02
0.00 0.00 0.00 0.01 0.02 0.03 0.05 0.05 0.06 0.06 0.06 0.06 0.07 0.08 0.08 0.08 0.08 0.09 0.08 0.07 0.07 0.06 0.08 0.13 0.24 0.41 0.40 0.27 0.24 0.28 0.29 0.15 0.06 0.04 0.04 0.05 0.05 0.15 0.34 0.31 0.11 0.03 0.02
0.00 0.00 0.00 0.00 0.00 0.01 0.03 0.05 0.07 0.08 0.09 0.09 0.09 0.09 0.10 0.09 0.09 0.11 0.11 0.10 0.10 0.09 0.08 0.09 0.17 0.36 0.39 0.31 0.31 0.34 0.24 0.08 0.03 0.05 0.04 0.04 0.05 0.18 0.43 0.43 0.26 0.09 0.03
0.00 0.00 0.00 0.00 0.00 0.01 0.02 0.04 0.07 0.09 0.09 0.09 0.08 0.07 0.07 0.08 0.08 0.09 0.08 0.07 0.09 0.10 0.10 0.08 0.09 0.21 0.28 0.30 0.38 0.34 0.14 0.04 0.02 0.03 0.04 0.03 0.04 0.20 0.45 0.49 0.37 0.20 0.08
0.00 0.00 0.00 0.00 0.00 0.00 0.01 0.03 0.05 0.06 0.06 0.06 0.06 0.07 0.08 0.07 0.07 0.06 0.05 0.04 0.07 0.09 0.10 0.10 0.11 0.16 0.22 0.22 0.28 0.21 0.06 0.03 0.03 0.03 0.03 0.02 0.04 0.17 0.39 0.48 0.43 0.31 0.19
0.00 0.00 0.00 0.00 0.00 0.00 0.00 0.01 0.02 0.03 0.03 0.04 0.05 0.06 0.08 0.10 0.10 0.09 0.07 0.06 0.09 0.09 0.11 0.14 0.17 0.17 0.15 0.14 0.22 0.16 0.07 0.07 0.07 0.03 0.03 0.01 0.05 0.15 0.30 0.41 0.46 0.39 0.29
0.00 0.00 0.00 0.00 0.00 0.00 0.00 0.00 0.01 0.02 0.04 0.06 0.07 0.10 0.14 0.16 0.15 0.12 0.10 0.08 0.08 0.09 0.11 0.14 0.18 0.15 0.16 0.26 0.37 0.26 0.17 0.15 0.09 0.05 0.02 0.01 0.04 0.12 0.23 0.32 0.42 0.45 0.37
0.00 0.00 0.00 0.00 0.00 0.00 0.00 0.00 0.00 0.00 0.02 0.04 0.07 0.09 0.11 0.13 0.11 0.10 0.07 0.06 0.07 0.09 0.11 0.14 0.15 0.18 0.19 0.23 0.25 0.20 0.14 0.12 0.08 0.05 0.02 0.00 0.02 0.07 0.15 0.24 0.33 0.43 0.41
0.00 0.00 0.00 0.00 0.00 0.00 0.00 0.00 0.00 0.00 0.00 0.01 0.02 0.03 0.04 0.05 0.06 0.06 0.04 0.03 0.03 0.05 0.06 0.08 0.09 0.12 0.15 0.17 0.15 0.13 0.11 0.09 0.07 0.05 0.03 0.00 0.00 0.03 0.09 0.17 0.22 0.32 0.40
0.00 0.00 0.00 0.00 0.00 0.00 0.00 0.00 0.00 0.00 0.00 0.00 0.01 0.01 0.01 0.01 0.02 0.02 0.01 0.01 0.01 0.02 0.03 0.06 0.06 0.07 0.09 0.13 0.12 0.11 0.11 0.08 0.06 0.05 0.04 0.01 0.00 0.01 0.06 0.13 0.18 0.21 0.29
0.00 0.00 0.00 0.00 0.00 0.00 0.00 0.00 0.00 0.00 0.00 0.00 0.00 0.00 0.00 0.00 0.00 0.00 0.01 0.01 0.00 0.01 0.05 0.10 0.13 0.15 0.15 0.17 0.16 0.17 0.16 0.14 0.11 0.10 0.09 0.06 0.03 0.02 0.05 0.13 0.18 0.19 0.23
0.00 0.00 0.00 0.00 0.00 0.00 0.00 0.00 0.00 0.00 0.00 0.00 0.00 0.00 0.00 0.01 0.02 0.02 0.01 0.01 0.01 0.01 0.05 0.10 0.17 0.20 0.20 0.22 0.22 0.25 0.26 0.25 0.20 0.19 0.19 0.14 0.11 0.06 0.05 0.08 0.17 0.22 0.29
0.00 0.00 0.00 0.00 0.00 0.00 0.00 0.00 0.00 0.00 0.00 0.00 0.00 0.00 0.00 0.01 0.02 0.03 0.03 0.03 0.02 0.03 0.05 0.09 0.12 0.17 0.20 0.24 0.26 0.28 0.33 0.35 0.32 0.27 0.23 0.21 0.18 0.12 0.08 0.07 0.11 0.17 0.28
0.00 0.00 0.00 0.00 0.00 0.00 0.00 0.00 0.00 0.00 0.00 0.00 0.00 0.00 0.00 0.00 0.01 0.01 0.02 0.03 0.04 0.06 0.08 0.10 0.13 0.15 0.18 0.24 0.29 0.29 0.33 0.36 0.35 0.31 0.28 0.29 0.28 0.20 0.14 0.11 0.09 0.09 0.15
0.00 0.00 0.00 0.00 0.00 0.00 0.00 0.00 0.00 0.00 0.00 0.00 0.00 0.00 0.00 0.00 0.00 0.00 0.00 0.01 0.02 0.04 0.07 0.10 0.11 0.11 0.12 0.16 0.20 0.20 0.20 0.23 0.27 0.26 0.25 0.27 0.31 0.32 0.28 0.22 0.17 0.12 0.11
0.00 0.00 0.00 0.00 0.00 0.00 0.00 0.00 0.00 0.00 0.00 0.00 0.00 0.00 0.00 0.00 0.00 0.00 0.00 0.00 0.00 0.00 0.01 0.01 0.03 0.04 0.04 0.07 0.13 0.16 0.14 0.15 0.16 0.17 0.18 0.22 0.27 0.33 0.34 0.33 0.30 0.24 0.18
0.00 0.00 0.00 0.00 0.00 0.00 0.00 0.00 0.00 0.00 0.00 0.00 0.00 0.00 0.00 0.00 0.00 0.00 0.00 0.00 0.00 0.00 0.00 0.00 0.01 0.02 0.02 0.03 0.06 0.12 0.11 0.09 0.11 0.11 0.14 0.16 0.19 0.20 0.22 0.25 0.26 0.27 0.26
0.00 0.00 0.00 0.00 0.00 0.00 0.00 0.00 0.00 0.00 0.00 0.00 0.00 0.00 0.00 0.00 0.00 0.00 0.00 0.00 0.00 0.01 0.01 0.01 0.01 0.01 0.02 0.02 0.03 0.05 0.07 0.07 0.08 0.07 0.05 0.05 0.07 0.09 0.10 0.11 0.13 0.16 0.18
0.00 0.00 0.00 0.00 0.00 0.00 0.00 0.00 0.00 0.00 0.00 0.00 0.00 0.00 0.00 0.00 0.00 0.00 0.01 0.01 0.01 0.01 0.01 0.01 0.01 0.02 0.02 0.03 0.03 0.03 0.03 0.04 0.06 0.08 0.04 0.02 0.02 0.03 0.05 0.07 0.09 0.11 0.13
0.00 0.00 0.00 0.00 0.00 0.00 0.00 0.00 0.00 0.00 0.00 0.00 0.00 0.00 0.00 0.00 0.00 0.01 0.01 0.01 0.01 0.02 0.02 0.02 0.03 0.03 0.03 0.03 0.04 0.04 0.03 0.03 0.03 0.04 0.05 0.04 0.03 0.02 0.03 0.03 0.04 0.07 0.10

GEFSSE_prec_meanprecacc_042.txt.gz
Total_Precipitation_Accumulation
0.03 0.04 0.06 0.05 0.03 0.02 0.01 0.01 0.01 0.01 0.01 0.01 0.03 0.04 0.04 0.05 0.05 0.06 0.07 0.12 0.15 0.11 0.10 0.13 0.10 0.09 0.08 0.08 0.08 0.07 0.04 0.03 0.03 0.04 0.09 0.14 0.10 0.05 0.05 0.06 0.06 0.11 0.08
0.03 0.04 0.06 0.05 0.04 0.03 0.02 0.02 0.01 0.01 0.01 0.01 0.01 0.03 0.03 0.05 0.06 0.06 0.09 0.14 0.18 0.13 0.12 0.14 0.16 0.17 0.16 0.16 0.16 0.14 0.07 0.03 0.02 0.02 0.04 0.09 0.09 0.04 0.02 0.04 0.06 0.14 0.14
0.02 0.03 0.04 0.04 0.04 0.04 0.03 0.03 0.02 0.02 0.02 0.02 0.02 0.03 0.03 0.05 0.07 0.09 0.11 0.12 0.15 0.18 0.18 0.17 0.27 0.29 0.27 0.27 0.25 0.21 0.14 0.05 0.01 0.01 0.02 0.13 0.16 0.08 0.03 0.02 0.03 0.03 0.05
0.01 0.02 0.02 0.03 0.04 0.04 0.04 0.03 0.03 0.02 0.03 0.03 0.02 0.02 0.04 0.06 0.07 0.11 0.16 0.17 0.20 0.29 0.32 0.35 0.42 0.40 0.35 0.31 0.28 0.24 0.22 0.13 0.04 0.01 0.03 0.14 0.26 0.20 0.08 0.03 0.02 0.01 0.01
0.00 0.01 0.02 0.03 0.04 0.04 0.04 0.04 0.03 0.03 0.03 0.04 0.03 0.03 0.03 0.05 0.08 0.11 0.15 0.19 0.25 0.35 0.36 0.35 0.38 0.36 0.33 0.31 0.27 0.29 0.34 0.23 0.08 0.02 0.03 0.10 0.23 0.29 0.15 0.08 0.06 0.03 0.01
0.00 0.00 0.01 0.03 0.04 0.04 0.05 0.04 0.04 0.04 0.04 0.04 0.05 0.04 0.04 0.05 0.08 0.10 0.12 0.14 0.18 0.24 0.26 0.29 0.32 0.32 0.31 0.29 0.24 0.28 0.37 0.32 0.12 0.03 0.04 0.08 0.19 0.30 0.18 0.08 0.06 0.04 0.03
0.00 0.00 0.00 0.02 0.03 0.04 0.05 0.05 0.05 0.04 0.04 0.05 0.06 0.06 0.06 0.07 0.09 0.10 0.09 0.09 0.09 0.12 0.15 0.23 0.31 0.35 0.34 0.28 0.25 0.30 0.37 0.29 0.10 0.10 0.12 0.12 0.17 0.20 0.21 0.12 0.04 0.03 0.02
0.00 0.00 0.00 0.01 0.02 0.03 0.05 0.05 0.06 0.06 0.06 0.06 0.07 0.09 0.09 0.10 0.12 0.14 0.12 0.10 0.09 0.08 0.11 0.16 0.26 0.43 0.43 0.30 0.28 0.35 0.34 0.17 0.06 0.07 0.11 0.15 0.16 0.21 0.40 0.35 0.14 0.05 0.03
0.00 0.00 0.00 0.00 0.00 0.01 0.03 0.05 0.07 0.08 0.09 0.09 0.09 0.09 0.10 0.10 0.11 0.15 0.14 0.13 0.14 0.12 0.11 0.13 0.20 0.40 0.42 0.34 0.35 0.39 0.27 0.09 0.03 0.11 0.10 0.18 0.15 0.26 0.49 0.47 0.30 0.12 0.04
0.00 0.00 0.00 0.00 0.00 0.01 0.02 0.04 0.07 0.09 0.09 0.09 0.08 0.07 0.07 0.08 0.08 0.10 0.10 0.09 0.11 0.14 0.14 0.12 0.14 0.26 0.32 0.33 0.41 0.36 0.15 0.04 0.02 0.06 0.17 0.17 0.13 0.28 0.53 0.53 0.41 0.24 0.11
0.00 0.00 0.00 0.00 0.00 0.00 0.01 0.03 0.05 0.06 0.06 0.06 0.06 0.07 0.08 0.07 0.07 0.07 0.06 0.05 0.08 0.12 0.13 0.16 0.16 0.20 0.26 0.25 0.30 0.23 0.07 0.03 0.04 0.08 0.16 0.15 0.14 0.26 0.47 0.54 0.46 0.35 0.24
0.00 0.00 0.00 0.00 0.00 0.00 0.00 0.01 0.02 0.03 0.03 0.04 0.05 0.06 0.08 0.10 0.10 0.09 0.07 0.07 0.09 0.10 0.13 0.18 0.20 0.20 0.20 0.18 0.31 0.24 0.10 0.07 0.08 0.05 0.09 0.07 0.15 0.28 0.40 0.49 0.52 0.43 0.35
0.00 0.00 0.00 0.00 0.00 0.00 0.00 0.00 0.01 0.02 0.04 0.06 0.07 0.10 0.14 0.16 0.15 0.12 0.10 0.09 0.09 0.09 0.12 0.16 0.21 0.20 0.25 0.38 0.53 0.41 0.27 0.20 0.12 0.06 0.03 0.04 0.10 0.21 0.33 0.41 0.51 0.53 0.45
0.00 0.00 0.00 0.00 0.00 0.00 0.00 0.00 0.00 0.00 0.02 0.04 0.07 0.09 0.11 0.13 0.11 0.10 0.07 0.06 0.07 0.09 0.11 0.14 0.17 0.21 0.24 0.31 0.36 0.33 0.27 0.23 0.15 0.10 0.05 0.04 0.05 0.10 0.19 0.29 0.40 0.53 0.51
0.00 0.00 0.00 0.00 0.00 0.00 0.00 0.00 0.00 0.00 0.00 0.01 0.02 0.03 0.04 0.05 0.06 0.06 0.04 0.03 0.03 0.05 0.07 0.08 0.10 0.12 0.16 0.20 0.20 0.20 0.21 0.20 0.16 0.14 0.10 0.06 0.03 0.04 0.10 0.19 0.26 0.38 0.50
0.00 0.00 0.00 0.00 0.00 0.00 0.00 0.00 0.00 0.00 0.00 0.00 0.01 0.01 0.01 0.01 0.02 0.02 0.01 0.01 0.01 0.02 0.03 0.06 0.06 0.07 0.09 0.14 0.14 0.14 0.15 0.13 0.12 0.13 0.12 0.09 0.04 0.02 0.07 0.13 0.19 0.23 0.36
0.00 0.00 0.00 0.00 0.00 0.00 0.00 0.00 0.00 0.00 0.00 0.00 0.00 0.00 0.00 0.00 0.00 0.00 0.01 0.01 0.00 0.01 0.05 0.10 0.13 0.15 0.15 0.17 0.16 0.18 0.17 0.16 0.14 0.16 0.16 0.14 0.11 0.06 0.06 0.14 0.18 0.19 0.26
0.00 0.00 0.00 0.00 0.00 0.00 0.00 0.00 0.00 0.00 0.00 0.00 0.00 0.00 0.00 0.01 0.02 0.02 0.01 0.01 0.01 0.01 0.05 0.10 0.17 0.20 0.20 0.22 0.22 0.25 0.26 0.26 0.21 0.21 0.22 0.19 0.17 0.13 0.08 0.09 0.17 0.22 0.30
0.00 0.00 0.00 0.00 0.00 0.00 0.00 0.00 0.00 0.00 0.00 0.00 0.00 0.00 0.00 0.01 0.02 0.03 0.03 0.03 0.02 0.03 0.05 0.09 0.12 0.17 0.20 0.24 0.26 0.28 0.33 0.35 0.32 0.28 0.24 0.22 0.20 0.16 0.12 0.09 0.12 0.17 0.28
0.00 0.00 0.00 0.00 0.00 0.00 0.00 0.00 0.00 0.00 0.00 0.00 0.00 0.00 0.00 0.00 0.01 0.01 0.02 0.03 0.04 0.06 0.08 0.10 0.13 0.15 0.18 0.24 0.29 0.29 0.33 0.36 0.35 0.31 0.29 0.30 0.28 0.21 0.16 0.12 0.09 0.09 0.15
0.00 0.00 0.00 0.00 0.00 0.00 0.00 0.00 0.00 0.00 0.00 0.00 0.00 0.00 0.00 0.00 0.00 0.00 0.00 0.01 0.02 0.04 0.07 0.10 0.11 0.11 0.12 0.17 0.21 0.20 0.20 0.23 0.27 0.26 0.25 0.27 0.31 0.33 0.29 0.23 0.17 0.12 0.11
0.00 0.00 0.00 0.00 0.00 0.00 0.00 0.00 0.00 0.00 0.00 0.00 0.00 0.00 0.00 0.00 0.00 0.00 0.00 0.00 0.00 0.01 0.01 0.01 0.03 0.05 0.05 0.07 0.14 0.17 0.14 0.15 0.16 0.17 0.18 0.22 0.28 0.33 0.35 0.33 0.30 0.25 0.18
0.00 0.00 0.00 0.00 0.00 0.00 0.00 0.00 0.00 0.00 0.00 0.00 0.00 0.00 0.00 0.00 0.00 0.00 0.00 0.00 0.00 0.01 0.01 0.01 0.01 0.02 0.03 0.03 0.07 0.15 0.14 0.10 0.12 0.12 0.14 0.16 0.19 0.20 0.22 0.25 0.27 0.28 0.26
0.00 0.00 0.00 0.00 0.00 0.00 0.00 0.00 0.00 0.00 0.00 0.00 0.00 0.00 0.00 0.00 0.00 0.00 0.00 0.00 0.01 0.01 0.01 0.01 0.01 0.02 0.03 0.04 0.04 0.07 0.10 0.09 0.10 0.08 0.05 0.06 0.07 0.09 0.11 0.12 0.14 0.16 0.19
0.00 0.00 0.00 0.00 0.00 0.00 0.00 0.00 0.00 0.00 0.00 0.00 0.00 0.00 0.00 0.00 0.00 0.00 0.01 0.01 0.01 0.01 0.01 0.02 0.02 0.02 0.03 0.04 0.05 0.05 0.05 0.06 0.09 0.11 0.06 0.02 0.03 0.04 0.06 0.08 0.10 0.11 0.13
0.00 0.00 0.00 0.00 0.00 0.00 0.00 0.00 0.00 0.00 0.00 0.00 0.00 0.00 0.00 0.00 0.00 0.01 0.01 0.01 0.02 0.02 0.02 0.02 0.03 0.04 0.04 0.05 0.06 0.06 0.07 0.07 0.06 0.08 0.08 0.05 0.04 0.02 0.04 0.05 0.06 0.08 0.10

GEFSSE_prec_meanprecacc_048.txt.gz
Total_Precipitation_Accumulation
0.05 0.05 0.10 0.09 0.09 0.07 0.06 0.05 0.05 0.04 0.04 0.05 0.06 0.08 0.09 0.09 0.08 0.09 0.10 0.14 0.17 0.12 0.12 0.14 0.12 0.10 0.10 0.10 0.11 0.11 0.07 0.04 0.03 0.05 0.10 0.15 0.11 0.06 0.05 0.06 0.06 0.13 0.10
0.04 0.05 0.06 0.06 0.06 0.05 0.04 0.03 0.03 0.03 0.03 0.03 0.04 0.06 0.07 0.09 0.10 0.10 0.13 0.17 0.21 0.16 0.14 0.15 0.17 0.19 0.18 0.18 0.18 0.17 0.09 0.04 0.03 0.02 0.05 0.10 0.10 0.05 0.03 0.04 0.06 0.17 0.16
0.02 0.03 0.04 0.04 0.04 0.04 0.04 0.03 0.03 0.03 0.03 0.03 0.03 0.04 0.06 0.08 0.11 0.13 0.15 0.16 0.18 0.21 0.20 0.19 0.28 0.31 0.28 0.28 0.26 0.23 0.16 0.06 0.02 0.02 0.03 0.13 0.17 0.12 0.06 0.03 0.03 0.05 0.07
0.01 0.02 0.02 0.03 0.04 0.04 0.04 0.04 0.03 0.03 0.03 0.03 0.03 0.03 0.05 0.07 0.10 0.14 0.19 0.21 0.24 0.32 0.34 0.37 0.44 0.41 0.36 0.32 0.29 0.25 0.23 0.14 0.05 0.02 0.03 0.14 0.27 0.24 0.15 0.07 0.03 0.02 0.02
0.00 0.01 0.02 0.03 0.04 0.04 0.04 0.04 0.03 0.03 0.03 0.04 0.03 0.03 0.04 0.06 0.09 0.13 0.17 0.21 0.27 0.38 0.39 0.37 0.41 0.39 0.35 0.33 0.29 0.30 0.35 0.25 0.11 0.03 0.03 0.10 0.23 0.32 0.22 0.15 0.09 0.04 0.02
0.00 0.00 0.01 0.03 0.04 0.04 0.05 0.04 0.04 0.04 0.04 0.04 0.05 0.04 0.04 0.06 0.08 0.11 0.13 0.15 0.19 0.26 0.28 0.32 0.35 0.35 0.34 0.32 0.27 0.30 0.39 0.35 0.14 0.03 0.05 0.08 0.19 0.32 0.25 0.17 0.11 0.08 0.04
0.00 0.00 0.00 0.02 0.03 0.04 0.05 0.05 0.05 0.04 0.04 0.05 0.06 0.06 0.06 0.07 0.09 0.10 0.10 0.10 0.10 0.13 0.17 0.25 0.34 0.39 0.38 0.32 0.28 0.33 0.41 0.33 0.12 0.10 0.12 0.12 0.17 0.22 0.28 0.20 0.11 0.08 0.06
0.00 0.00 0.00 0.01 0.02 0.03 0.05 0.05 0.06 0.06 0.06 0.06 0.07 0.09 0.09 0.10 0.12 0.14 0.12 0.10 0.09 0.09 0.12 0.17 0.28 0.46 0.46 0.34 0.32 0.39 0.38 0.20 0.08 0.08 0.11 0.15 0.18 0.27 0.50 0.47 0.23 0.11 0.08
0.00 0.00 0.00 0.00 0.00 0.01 0.03 0.05 0.07 0.08 0.09 0.09 0.09 0.09 0.10 0.10 0.11 0.15 0.14 0.13 0.14 0.12 0.12 0.13 0.22 0.42 0.44 0.37 0.38 0.43 0.31 0.12 0.04 0.11 0.10 0.19 0.17 0.35 0.62 0.63 0.43 0.21 0.10
0.00 0.00 0.00 0.00 0.00 0.01 0.02 0.04 0.07 0.09 0.09 0.09 0.08 0.07 0.07 0.08 0.08 0.10 0.10 0.09 0.11 0.14 0.14 0.12 0.14 0.27 0.34 0.35 0.43 0.40 0.18 0.06 0.02 0.07 0.17 0.17 0.15 0.37 0.71 0.73 0.59 0.38 0.20
0.00 0.00 0.00 0.00 0.00 0.00 0.01 0.03 0.05 0.06 0.06 0.06 0.06 0.07 0.08 0.07 0.07 0.07 0.06 0.05 0.08 0.12 0.13 0.16 0.16 0.21 0.26 0.25 0.32 0.26 0.09 0.04 0.04 0.08 0.16 0.15 0.17 0.35 0.68 0.80 0.68 0.53 0.39
0.00 0.00 0.00 0.00 0.00 0.00 0.00 0.01 0.02 0.03 0.03 0.04 0.05 0.06 0.08 0.10 0.10 0.09 0.07 0.07 0.09 0.10 0.13 0.18 0.20 0.20 0.20 0.19 0.31 0.26 0.12 0.09 0.09 0.06 0.09 0.08 0.19 0.37 0.58 0.74 0.79 0.65 0.53
0.00 0.00 0.00 0.00 0.00 0.00 0.00 0.00 0.01 0.02 0.04 0.06 0.07 0.10 0.14 0.16 0.15 0.12 0.10 0.09 0.09 0.09 0.12 0.16 0.21 0.20 0.25 0.39 0.53 0.42 0.28 0.22 0.13 0.07 0.04 0.05 0.14 0.28 0.45 0.59 0.75 0.80 0.70
0.00 0.00 0.00 0.00 0.00 0.00 0.00 0.00 0.00 0.00 0.02 0.04 0.07 0.09 0.11 0.13 0.11 0.10 0.07 0.06 0.07 0.09 0.11 0.14 0.17 0.21 0.24 0.31 0.36 0.33 0.27 0.24 0.17 0.12 0.07 0.06 0.09 0.15 0.27 0.40 0.57 0.76 0.76
0.00 0.00 0.00 0.00 0.00 0.00 0.00 0.00 0.00 0.00 0.00 0.01 0.02 0.03 0.04 0.05 0.06 0.06 0.04 0.03 0.03 0.05 0.07 0.08 0.10 0.12 0.16 0.20 0.20 0.21 0.22 0.20 0.17 0.16 0.14 0.10 0.09 0.11 0.17 0.27 0.36 0.53 0.69
0.00 0.00 0.00 0.00 0.00 0.00 0.00 0.00 0.00 0.00 0.00 0.00 0.01 0.01 0.01 0.01 0.02 0.02 0.01 0.01 0.01 0.02 0.03 0.06 0.06 0.07 0.09 0.14 0.14 0.14 0.15 0.14 0.13 0.14 0.15 0.15 0.12 0.11 0.15 0.22 0.27 0.33 0.48
0.00 0.00 0.00 0.00 0.00 0.00 0.00 0.00 0.00 0.00 0.00 0.00 0.00 0.00 0.00 0.00 0.00 0.00 0.01 0.01 0.00 0.01 0.05 0.10 0.13 0.15 0.15 0.17 0.16 0.18 0.17 0.16 0.15 0.17 0.18 0.18 0.18 0.16 0.17 0.26 0.29 0.29 0.35
0.00 0.00 0.00 0.00 0.00 0.00 0.00 0.00 0.00 0.00 0.00 0.00 0.00 0.00 0.00 0.01 0.02 0.02 0.02 0.01 0.01 0.01 0.05 0.10 0.17 0.20 0.20 0.22 0.22 0.25 0.26 0.26 0.21 0.22 0.23 0.21 0.21 0.20 0.18 0.22 0.29 0.32 0.38
0.00 0.00 0.00 0.00 0.00 0.00 0.00 0.00 0.00 0.00 0.00 0.00 0.00 0.00 0.00 0.01 0.02 0.03 0.03 0.03 0.02 0.03 0.05 0.09 0.12 0.17 0.20 0.24 0.26 0.28 0.33 0.35 0.32 0.28 0.24 0.23 0.22 0.21 0.22 0.22 0.24 0.27 0.37
0.00 0.00 0.00 0.00 0.00 0.00 0.00 0.00 0.00 0.00 0.00 0.00 0.00 0.00 0.00 0.00 0.01 0.01 0.02 0.03 0.04 0.06 0.08 0.10 0.13 0.15 0.18 0.24 0.29 0.29 0.33 0.36 0.35 0.31 0.29 0.30 0.29 0.23 0.22 0.23 0.24 0.22 0.24
0.00 0.00 0.00 0.00 0.00 0.00 0.00 0.00 0.00 0.00 0.00 0.00 0.00 0.00 0.00 0.00 0.00 0.00 0.00 0.01 0.02 0.04 0.07 0.10 0.11 0.11 0.12 0.17 0.21 0.20 0.20 0.23 0.27 0.26 0.25 0.27 0.31 0.34 0.32 0.29 0.27 0.25 0.22
0.00 0.00 0.00 0.00 0.00 0.00 0.00 0.00 0.00 0.00 0.00 0.00 0.00 0.00 0.00 0.00 0.00 0.00 0.00 0.00 0.00 0.01 0.01 0.01 0.03 0.05 0.05 0.07 0.15 0.18 0.15 0.15 0.16 0.17 0.18 0.22 0.28 0.34 0.36 0.37 0.36 0.33 0.28
0.00 0.00 0.00 0.00 0.00 0.00 0.00 0.00 0.00 0.00 0.00 0.00 0.00 0.00 0.00 0.00 0.00 0.00 0.00 0.00 0.00 0.01 0.01 0.01 0.01 0.03 0.04 0.04 0.08 0.18 0.20 0.14 0.13 0.12 0.14 0.16 0.19 0.21 0.23 0.26 0.30 0.33 0.33
0.00 0.00 0.00 0.00 0.00 0.00 0.00 0.00 0.00 0.00 0.00 0.00 0.00 0.00 0.00 0.00 0.00 0.00 0.00 0.00 0.01 0.01 0.01 0.01 0.01 0.02 0.04 0.05 0.05 0.09 0.13 0.14 0.15 0.10 0.06 0.06 0.08 0.09 0.11 0.12 0.15 0.18 0.22
0.00 0.00 0.00 0.00 0.00 0.00 0.00 0.00 0.00 0.00 0.00 0.00 0.00 0.00 0.00 0.00 0.00 0.00 0.01 0.01 0.01 0.01 0.01 0.02 0.02 0.02 0.04 0.05 0.07 0.07 0.06 0.07 0.11 0.16 0.07 0.02 0.03 0.04 0.07 0.08 0.10 0.12 0.15
0.00 0.00 0.00 0.00 0.00 0.00 0.00 0.00 0.00 0.00 0.00 0.00 0.00 0.00 0.00 0.00 0.00 0.01 0.01 0.01 0.02 0.02 0.02 0.02 0.03 0.04 0.04 0.05 0.07 0.08 0.10 0.11 0.10 0.13 0.12 0.06 0.04 0.03 0.04 0.05 0.07 0.09 0.13

GEFSSE_prec_meanprecacc_054.txt.gz
Total_Precipitation_Accumulation
0.05 0.05 0.10 0.10 0.09 0.08 0.06 0.06 0.05 0.05 0.05 0.05 0.07 0.09 0.10 0.11 0.11 0.11 0.13 0.17 0.20 0.15 0.15 0.17 0.14 0.12 0.12 0.12 0.13 0.13 0.09 0.06 0.05 0.07 0.11 0.16 0.13 0.07 0.05 0.06 0.06 0.13 0.10
0.04 0.05 0.07 0.06 0.06 0.05 0.04 0.04 0.03 0.03 0.03 0.04 0.04 0.07 0.08 0.10 0.11 0.12 0.15 0.19 0.23 0.18 0.16 0.18 0.20 0.21 0.19 0.19 0.20 0.19 0.11 0.06 0.05 0.06 0.08 0.11 0.12 0.07 0.04 0.04 0.06 0.18 0.17
0.02 0.03 0.04 0.04 0.04 0.04 0.04 0.03 0.03 0.03 0.03 0.03 0.03 0.04 0.06 0.08 0.11 0.13 0.16 0.17 0.20 0.22 0.22 0.21 0.30 0.32 0.30 0.29 0.28 0.24 0.18 0.08 0.05 0.05 0.06 0.14 0.18 0.13 0.08 0.05 0.04 0.08 0.11
0.01 0.02 0.02 0.03 0.04 0.04 0.04 0.04 0.03 0.03 0.03 0.03 0.03 0.03 0.05 0.08 0.10 0.14 0.20 0.21 0.24 0.33 0.35 0.38 0.45 0.43 0.37 0.33 0.30 0.26 0.24 0.15 0.07 0.06 0.05 0.14 0.27 0.25 0.17 0.11 0.04 0.04 0.07
0.00 0.01 0.02 0.03 0.04 0.04 0.04 0.04 0.03 0.03 0.03 0.04 0.03 0.03 0.04 0.06 0.09 0.13 0.17 0.21 0.27 0.38 0.39 0.38 0.42 0.40 0.36 0.34 0.30 0.31 0.36 0.26 0.12 0.05 0.04 0.10 0.23 0.32 0.25 0.21 0.13 0.06 0.06
0.00 0.00 0.01 0.03 0.04 0.04 0.05 0.04 0.04 0.04 0.04 0.04 0.05 0.05 0.04 0.06 0.08 0.11 0.14 0.15 0.19 0.26 0.28 0.32 0.36 0.36 0.34 0.32 0.27 0.31 0.40 0.36 0.15 0.04 0.05 0.08 0.19 0.32 0.28 0.25 0.19 0.12 0.07
0.00 0.00 0.00 0.02 0.03 0.04 0.05 0.05 0.05 0.04 0.04 0.05 0.06 0.07 0.07 0.07 0.09 0.10 0.10 0.10 0.10 0.13 0.17 0.26 0.34 0.39 0.39 0.33 0.28 0.34 0.42 0.34 0.13 0.10 0.12 0.12 0.17 0.23 0.33 0.31 0.22 0.16 0.11
0.00 0.00 0.00 0.01 0.02 0.03 0.05 0.05 0.06 0.06 0.06 0.06 0.07 0.09 0.09 0.10 0.12 0.14 0.12 0.10 0.09 0.09 0.12 0.18 0.29 0.47 0.46 0.34 0.33 0.39 0.38 0.21 0.08 0.08 0.11 0.15 0.18 0.28 0.55 0.60 0.38 0.23 0.17
0.00 0.00 0.00 0.00 0.00 0.01 0.03 0.05 0.07 0.08 0.09 0.09 0.09 0.09 0.10 0.10 0.11 0.15 0.14 0.13 0.14 0.13 0.12 0.13 0.22 0.42 0.45 0.37 0.38 0.43 0.31 0.12 0.04 0.11 0.10 0.19 0.17 0.37 0.69 0.75 0.60 0.38 0.24
0.00 0.00 0.00 0.00 0.00 0.01 0.02 0.04 0.07 0.09 0.09 0.09 0.08 0.07 0.07 0.08 0.08 0.10 0.10 0.09 0.11 0.14 0.14 0.13 0.15 0.27 0.34 0.35 0.43 0.40 0.18 0.06 0.02 0.07 0.17 0.17 0.15 0.39 0.76 0.84 0.75 0.58 0.40
0.00 0.00 0.00 0.00 0.00 0.00 0.01 0.03 0.05 0.06 0.06 0.06 0.06 0.07 0.08 0.07 0.07 0.07 0.06 0.05 0.08 0.12 0.13 0.16 0.16 0.21 0.26 0.25 0.32 0.26 0.09 0.04 0.04 0.08 0.16 0.15 0.17 0.37 0.73 0.88 0.82 0.72 0.60
0.00 0.00 0.00 0.00 0.00 0.00 0.00 0.01 0.02 0.03 0.03 0.04 0.05 0.06 0.08 0.10 0.10 0.09 0.07 0.07 0.09 0.10 0.13 0.18 0.20 0.20 0.20 0.19 0.31 0.26 0.12 0.09 0.09 0.06 0.09 0.08 0.19 0.38 0.61 0.80 0.89 0.80 0.73
0.00 0.00 0.00 0.00 0.00 0.00 0.00 0.00 0.01 0.02 0.04 0.06 0.07 0.10 0.14 0.16 0.15 0.12 0.10 0.09 0.09 0.09 0.12 0.16 0.21 0.20 0.25 0.39 0.53 0.42 0.28 0.22 0.13 0.07 0.04 0.05 0.14 0.29 0.47 0.63 0.82 0.92 0.88
0.00 0.00 0.00 0.00 0.00 0.00 0.00 0.00 0.00 0.00 0.02 0.04 0.07 0.09 0.11 0.13 0.11 0.10 0.07 0.06 0.07 0.09 0.11 0.14 0.17 0.21 0.24 0.31 0.36 0.33 0.27 0.24 0.17 0.12 0.07 0.06 0.09 0.15 0.28 0.43 0.62 0.85 0.92
0.00 0.00 0.00 0.00 0.00 0.00 0.00 0.00 0.00 0.00 0.00 0.01 0.02 0.03 0.04 0.05 0.06 0.06 0.04 0.03 0.03 0.05 0.07 0.08 0.10 0.12 0.16 0.20 0.20 0.21 0.22 0.21 0.17 0.16 0.14 0.10 0.09 0.11 0.17 0.28 0.40 0.62 0.84
0.00 0.00 0.00 0.00 0.00 0.00 0.00 0.00 0.00 0.00 0.00 0.00 0.01 0.01 0.01 0.01 0.02 0.02 0.01 0.01 0.01 0.02 0.03 0.06 0.06 0.07 0.09 0.14 0.14 0.14 0.15 0.14 0.13 0.14 0.15 0.15 0.12 0.11 0.16 0.23 0.30 0.39 0.62
0.00 0.00 0.00 0.00 0.00 0.00 0.00 0.00 0.00 0.00 0.00 0.00 0.00 0.00 0.00 0.00 0.00 0.00 0.01 0.01 0.00 0.01 0.05 0.10 0.13 0.15 0.15 0.17 0.16 0.18 0.17 0.16 0.15 0.17 0.18 0.18 0.18 0.16 0.17 0.27 0.31 0.33 0.44
0.00 0.00 0.00 0.00 0.00 0.00 0.00 0.00 0.00 0.00 0.00 0.00 0.00 0.00 0.00 0.01 0.02 0.02 0.02 0.01 0.01 0.01 0.05 0.10 0.17 0.20 0.20 0.22 0.22 0.25 0.26 0.26 0.21 0.22 0.24 0.21 0.21 0.20 0.19 0.23 0.31 0.35 0.44
0.00 0.00 0.00 0.00 0.00 0.00 0.00 0.00 0.00 0.00 0.00 0.00 0.00 0.00 0.00 0.01 0.02 0.03 0.03 0.03 0.02 0.03 0.05 0.09 0.13 0.17 0.20 0.24 0.26 0.28 0.33 0.35 0.32 0.28 0.25 0.23 0.23 0.21 0.22 0.24 0.27 0.31 0.41
0.00 0.00 0.00 0.00 0.00 0.00 0.00 0.00 0.00 0.00 0.00 0.00 0.00 0.00 0.00 0.00 0.01 0.01 0.02 0.03 0.04 0.06 0.08 0.10 0.13 0.15 0.18 0.24 0.29 0.29 0.33 0.36 0.35 0.31 0.29 0.30 0.30 0.24 0.23 0.24 0.26 0.26 0.29
0.00 0.00 0.00 0.00 0.00 0.00 0.00 0.00 0.00 0.00 0.00 0.00 0.00 0.00 0.00 0.00 0.00 0.00 0.00 0.01 0.02 0.04 0.07 0.10 0.11 0.11 0.12 0.17 0.21 0.20 0.20 0.23 0.27 0.26 0.25 0.28 0.32 0.35 0.33 0.30 0.28 0.28 0.28
0.00 0.00 0.00 0.00 0.00 0.00 0.00 0.00 0.00 0.00 0.00 0.00 0.00 0.00 0.00 0.00 0.00 0.00 0.00 0.00 0.00 0.01 0.01 0.01 0.03 0.05 0.05 0.07 0.15 0.19 0.16 0.15 0.16 0.17 0.18 0.22 0.28 0.35 0.38 0.39 0.38 0.35 0.32
0.00 0.00 0.00 0.00 0.00 0.00 0.00 0.00 0.00 0.00 0.00 0.00 0.00 0.00 0.00 0.00 0.00 0.00 0.00 0.00 0.00 0.01 0.01 0.01 0.01 0.03 0.04 0.04 0.08 0.21 0.26 0.18 0.13 0.12 0.14 0.16 0.19 0.21 0.24 0.29 0.32 0.35 0.36
0.00 0.00 0.00 0.00 0.00 0.00 0.00 0.00 0.00 0.00 0.00 0.00 0.00 0.00 0.00 0.00 0.00 0.00 0.00 0.00 0.01 0.01 0.01 0.01 0.01 0.02 0.04 0.05 0.05 0.09 0.17 0.19 0.20 0.13 0.06 0.06 0.08 0.10 0.12 0.14 0.17 0.21 0.26
0.00 0.00 0.00 0.00 0.00 0.00 0.00 0.00 0.00 0.00 0.00 0.00 0.00 0.00 0.00 0.00 0.00 0.00 0.01 0.01 0.01 0.01 0.01 0.02 0.02 0.02 0.04 0.05 0.07 0.08 0.07 0.08 0.14 0.21 0.09 0.02 0.03 0.04 0.07 0.09 0.12 0.15 0.19
0.00 0.00 0.00 0.00 0.00 0.00 0.00 0.00 0.00 0.00 0.00 0.00 0.00 0.00 0.00 0.00 0.00 0.01 0.01 0.01 0.02 0.02 0.02 0.02 0.03 0.04 0.04 0.05 0.07 0.09 0.11 0.13 0.13 0.18 0.16 0.07 0.04 0.03 0.04 0.06 0.07 0.11 0.16

GEFSSE_prec_meanprecacc_060.txt.gz
Total_Precipitation_Accumulation
0.05 0.05 0.11 0.11 0.11 0.09 0.07 0.06 0.06 0.05 0.05 0.06 0.08 0.10 0.11 0.12 0.11 0.12 0.14 0.18 0.21 0.16 0.16 0.18 0.16 0.14 0.14 0.15 0.15 0.15 0.11 0.09 0.08 0.09 0.13 0.17 0.14 0.08 0.06 0.06 0.06 0.13 0.11
0.04 0.05 0.07 0.06 0.06 0.06 0.05 0.04 0.04 0.04 0.04 0.04 0.05 0.07 0.09 0.11 0.12 0.12 0.16 0.20 0.24 0.18 0.17 0.19 0.21 0.22 0.21 0.21 0.21 0.20 0.13 0.09 0.08 0.08 0.09 0.12 0.12 0.08 0.05 0.05 0.07 0.19 0.18
0.02 0.03 0.04 0.04 0.04 0.04 0.04 0.04 0.03 0.03 0.03 0.04 0.03 0.05 0.06 0.09 0.12 0.14 0.17 0.18 0.20 0.23 0.22 0.21 0.31 0.33 0.31 0.30 0.28 0.25 0.19 0.10 0.06 0.07 0.07 0.15 0.18 0.13 0.09 0.07 0.05 0.08 0.13
0.01 0.02 0.02 0.03 0.04 0.04 0.04 0.04 0.03 0.03 0.04 0.04 0.03 0.03 0.05 0.08 0.11 0.15 0.20 0.22 0.25 0.33 0.36 0.39 0.45 0.43 0.38 0.34 0.31 0.27 0.25 0.17 0.08 0.06 0.05 0.15 0.28 0.25 0.18 0.13 0.07 0.07 0.10
0.00 0.01 0.02 0.03 0.04 0.04 0.04 0.04 0.03 0.03 0.04 0.04 0.04 0.04 0.04 0.07 0.10 0.13 0.17 0.22 0.28 0.39 0.40 0.39 0.42 0.41 0.37 0.35 0.31 0.32 0.37 0.27 0.13 0.05 0.04 0.10 0.24 0.33 0.25 0.22 0.16 0.11 0.10
0.00 0.00 0.01 0.03 0.04 0.04 0.05 0.05 0.04 0.04 0.04 0.05 0.05 0.05 0.05 0.06 0.08 0.11 0.14 0.15 0.20 0.27 0.29 0.33 0.36 0.37 0.35 0.33 0.28 0.31 0.41 0.37 0.15 0.04 0.05 0.08 0.19 0.33 0.29 0.26 0.22 0.15 0.11
0.00 0.00 0.00 0.02 0.03 0.04 0.05 0.05 0.05 0.04 0.04 0.05 0.06 0.07 0.07 0.07 0.09 0.10 0.10 0.10 0.11 0.14 0.18 0.26 0.35 0.40 0.39 0.33 0.29 0.34 0.42 0.34 0.13 0.10 0.12 0.12 0.17 0.23 0.34 0.33 0.26 0.21 0.16
0.00 0.00 0.00 0.01 0.02 0.03 0.05 0.05 0.06 0.06 0.06 0.06 0.07 0.09 0.09 0.10 0.12 0.14 0.12 0.10 0.09 0.09 0.12 0.18 0.29 0.47 0.47 0.35 0.33 0.39 0.38 0.21 0.08 0.08 0.11 0.15 0.18 0.29 0.57 0.62 0.42 0.29 0.24
0.00 0.00 0.00 0.00 0.00 0.01 0.03 0.05 0.07 0.08 0.09 0.09 0.09 0.09 0.10 0.10 0.11 0.15 0.14 0.13 0.14 0.13 0.12 0.14 0.22 0.42 0.45 0.38 0.38 0.43 0.31 0.12 0.04 0.11 0.10 0.19 0.17 0.37 0.70 0.78 0.64 0.43 0.31
0.00 0.00 0.00 0.00 0.00 0.01 0.02 0.04 0.07 0.09 0.09 0.09 0.08 0.07 0.07 0.08 0.08 0.10 0.10 0.09 0.11 0.15 0.14 0.13 0.15 0.27 0.34 0.35 0.43 0.40 0.18 0.06 0.02 0.07 0.17 0.17 0.15 0.39 0.78 0.87 0.79 0.62 0.47
0.00 0.00 0.00 0.00 0.00 0.00 0.01 0.03 0.05 0.06 0.06 0.06 0.06 0.07 0.08 0.07 0.07 0.07 0.06 0.05 0.08 0.12 0.13 0.16 0.16 0.21 0.26 0.25 0.32 0.26 0.09 0.04 0.04 0.08 0.16 0.15 0.17 0.37 0.74 0.90 0.84 0.76 0.66
0.00 0.00 0.00 0.00 0.00 0.00 0.00 0.01 0.02 0.03 0.03 0.04 0.05 0.06 0.08 0.10 0.10 0.09 0.07 0.07 0.09 0.10 0.13 0.18 0.20 0.20 0.20 0.19 0.31 0.26 0.12 0.09 0.09 0.06 0.09 0.08 0.19 0.38 0.62 0.81 0.90 0.83 0.77
0.00 0.00 0.00 0.00 0.00 0.00 0.00 0.00 0.01 0.02 0.04 0.06 0.07 0.10 0.14 0.16 0.15 0.12 0.10 0.09 0.09 0.09 0.12 0.16 0.21 0.20 0.25 0.39 0.53 0.42 0.28 0.22 0.13 0.07 0.04 0.05 0.14 0.29 0.47 0.64 0.83 0.93 0.91
0.00 0.00 0.00 0.00 0.00 0.00 0.00 0.00 0.00 0.00 0.02 0.04 0.07 0.09 0.11 0.13 0.11 0.10 0.07 0.06 0.07 0.09 0.11 0.14 0.17 0.21 0.24 0.31 0.36 0.33 0.27 0.24 0.17 0.12 0.07 0.06 0.09 0.15 0.28 0.43 0.62 0.86 0.94
0.00 0.00 0.00 0.00 0.00 0.00 0.00 0.00 0.00 0.00 0.00 0.01 0.02 0.03 0.04 0.05 0.06 0.06 0.04 0.03 0.03 0.05 0.07 0.08 0.10 0.12 0.16 0.20 0.20 0.21 0.22 0.21 0.17 0.16 0.14 0.10 0.09 0.11 0.17 0.28 0.40 0.63 0.86
0.00 0.00 0.00 0.00 0.00 0.00 0.00 0.00 0.00 0.00 0.00 0.00 0.01 0.01 0.01 0.01 0.02 0.02 0.01 0.01 0.01 0.02 0.03 0.06 0.06 0.07 0.09 0.14 0.14 0.14 0.15 0.14 0.13 0.14 0.15 0.15 0.12 0.11 0.16 0.23 0.30 0.40 0.63
0.00 0.00 0.00 0.00 0.00 0.00 0.00 0.00 0.00 0.00 0.00 0.00 0.00 0.00 0.00 0.00 0.00 0.00 0.01 0.01 0.00 0.01 0.05 0.10 0.13 0.15 0.15 0.17 0.16 0.18 0.17 0.16 0.15 0.17 0.18 0.18 0.18 0.16 0.17 0.27 0.31 0.33 0.44
0.00 0.00 0.00 0.00 0.00 0.00 0.00 0.00 0.00 0.00 0.00 0.00 0.00 0.00 0.00 0.01 0.02 0.02 0.02 0.01 0.01 0.01 0.05 0.10 0.17 0.20 0.20 0.22 0.22 0.25 0.26 0.26 0.21 0.22 0.24 0.21 0.21 0.20 0.19 0.23 0.32 0.36 0.44
0.00 0.00 0.00 0.00 0.00 0.00 0.00 0.00 0.00 0.00 0.00 0.00 0.00 0.00 0.00 0.01 0.02 0.03 0.03 0.03 0.02 0.03 0.05 0.09 0.13 0.17 0.20 0.24 0.26 0.28 0.33 0.35 0.32 0.28 0.25 0.23 0.23 0.21 0.22 0.24 0.28 0.31 0.41
0.00 0.00 0.00 0.00 0.00 0.00 0.00 0.00 0.00 0.00 0.00 0.00 0.00 0.00 0.00 0.00 0.01 0.01 0.02 0.03 0.04 0.06 0.08 0.10 0.13 0.15 0.18 0.24 0.29 0.29 0.33 0.36 0.35 0.31 0.29 0.30 0.30 0.24 0.23 0.24 0.26 0.26 0.29
0.00 0.00 0.00 0.00 0.00 0.00 0.00 0.00 0.00 0.00 0.00 0.00 0.00 0.00 0.00 0.00 0.00 0.00 0.00 0.01 0.02 0.04 0.07 0.10 0.11 0.11 0.12 0.17 0.21 0.20 0.20 0.23 0.27 0.26 0.25 0.28 0.32 0.35 0.34 0.31 0.29 0.28 0.29
0.00 0.00 0.00 0.00 0.00 0.00 0.00 0.00 0.00 0.00 0.00 0.00 0.00 0.00 0.00 0.00 0.00 0.00 0.00 0.00 0.00 0.01 0.01 0.01 0.03 0.05 0.05 0.07 0.15 0.19 0.16 0.15 0.16 0.17 0.18 0.22 0.28 0.35 0.38 0.40 0.39 0.36 0.32
0.00 0.00 0.00 0.00 0.00 0.00 0.00 0.00 0.00 0.00 0.00 0.00 0.00 0.00 0.00 0.00 0.00 0.00 0.00 0.00 0.00 0.01 0.01 0.01 0.01 0.03 0.04 0.04 0.08 0.21 0.27 0.19 0.14 0.12 0.14 0.16 0.19 0.21 0.24 0.29 0.33 0.36 0.37
0.00 0.00 0.00 0.00 0.00 0.00 0.00 0.00 0.00 0.00 0.00 0.00 0.00 0.00 0.00 0.00 0.00 0.00 0.00 0.00 0.01 0.01 0.01 0.01 0.01 0.02 0.04 0.05 0.05 0.10 0.18 0.20 0.23 0.14 0.06 0.06 0.08 0.10 0.12 0.14 0.18 0.23 0.28
0.00 0.00 0.00 0.00 0.00 0.00 0.00 0.00 0.00 0.00 0.00 0.00 0.00 0.00 0.00 0.00 0.00 0.00 0.01 0.01 0.01 0.01 0.01 0.02 0.02 0.03 0.04 0.06 0.07 0.08 0.07 0.09 0.16 0.24 0.11 0.03 0.03 0.04 0.07 0.10 0.12 0.16 0.21
0.00 0.00 0.00 0.00 0.00 0.00 0.00 0.00 0.00 0.00 0.00 0.00 0.00 0.00 0.00 0.00 0.00 0.01 0.01 0.01 0.02 0.02 0.02 0.03 0.04 0.04 0.04 0.06 0.07 0.09 0.12 0.14 0.14 0.20 0.18 0.08 0.05 0.03 0.04 0.06 0.08 0.13 0.18

GEFSSE_prec_meanprecacc_066.txt.gz
Total_Precipitation_Accumulation
0.05 0.05 0.11 0.12 0.12 0.10 0.08 0.07 0.07 0.06 0.06 0.07 0.09 0.11 0.12 0.13 0.12 0.13 0.15 0.19 0.21 0.17 0.17 0.19 0.17 0.15 0.15 0.16 0.16 0.16 0.12 0.10 0.09 0.10 0.14 0.17 0.14 0.09 0.08 0.09 0.08 0.15 0.16
0.04 0.05 0.07 0.07 0.07 0.06 0.06 0.05 0.04 0.04 0.05 0.05 0.06 0.08 0.09 0.11 0.13 0.13 0.16 0.21 0.24 0.19 0.18 0.20 0.21 0.23 0.22 0.22 0.22 0.21 0.14 0.09 0.08 0.08 0.09 0.12 0.13 0.09 0.07 0.09 0.09 0.21 0.22
0.02 0.03 0.04 0.04 0.05 0.04 0.04 0.04 0.04 0.04 0.04 0.04 0.04 0.05 0.07 0.10 0.13 0.15 0.18 0.19 0.21 0.24 0.23 0.22 0.32 0.34 0.31 0.31 0.29 0.26 0.20 0.11 0.07 0.07 0.07 0.15 0.19 0.15 0.12 0.11 0.09 0.12 0.17
0.01 0.02 0.02 0.03 0.04 0.04 0.04 0.04 0.03 0.03 0.04 0.04 0.04 0.04 0.06 0.08 0.11 0.15 0.21 0.22 0.25 0.34 0.37 0.39 0.46 0.44 0.39 0.34 0.31 0.27 0.26 0.17 0.09 0.06 0.05 0.15 0.28 0.27 0.21 0.17 0.11 0.11 0.15
0.00 0.01 0.02 0.03 0.04 0.04 0.04 0.04 0.04 0.03 0.04 0.05 0.04 0.04 0.05 0.07 0.10 0.14 0.17 0.22 0.28 0.40 0.40 0.39 0.43 0.41 0.38 0.35 0.31 0.32 0.37 0.27 0.13 0.05 0.04 0.10 0.24 0.34 0.27 0.25 0.19 0.15 0.14
0.00 0.00 0.01 0.03 0.04 0.04 0.05 0.05 0.04 0.04 0.04 0.05 0.05 0.05 0.05 0.06 0.08 0.11 0.14 0.15 0.20 0.27 0.29 0.33 0.37 0.37 0.36 0.33 0.28 0.32 0.41 0.37 0.15 0.04 0.05 0.08 0.19 0.33 0.30 0.28 0.24 0.18 0.14
0.00 0.00 0.00 0.02 0.03 0.04 0.05 0.05 0.05 0.04 0.04 0.05 0.06 0.07 0.07 0.07 0.09 0.10 0.10 0.10 0.11 0.14 0.18 0.26 0.35 0.40 0.40 0.33 0.29 0.34 0.42 0.34 0.13 0.10 0.12 0.12 0.17 0.23 0.34 0.34 0.27 0.23 0.20
0.00 0.00 0.00 0.01 0.02 0.03 0.05 0.05 0.06 0.06 0.06 0.06 0.07 0.09 0.09 0.10 0.12 0.14 0.12 0.10 0.09 0.09 0.12 0.18 0.29 0.47 0.47 0.35 0.33 0.39 0.38 0.21 0.08 0.08 0.11 0.15 0.18 0.29 0.57 0.63 0.43 0.31 0.27
0.00 0.00 0.00 0.00 0.00 0.01 0.03 0.05 0.07 0.08 0.09 0.09 0.09 0.09 0.10 0.10 0.11 0.15 0.14 0.13 0.14 0.13 0.12 0.14 0.22 0.42 0.45 0.38 0.38 0.43 0.31 0.12 0.04 0.11 0.10 0.19 0.17 0.37 0.70 0.78 0.64 0.44 0.33
0.00 0.00 0.00 0.00 0.00 0.01 0.02 0.04 0.07 0.09 0.09 0.09 0.08 0.07 0.07 0.08 0.08 0.10 0.10 0.09 0.11 0.15 0.14 0.13 0.15 0.27 0.34 0.35 0.43 0.40 0.18 0.06 0.02 0.07 0.17 0.17 0.15 0.39 0.78 0.87 0.79 0.63 0.47
0.00 0.00 0.00 0.00 0.00 0.00 0.01 0.03 0.05 0.06 0.06 0.06 0.06 0.07 0.08 0.07 0.07 0.07 0.06 0.05 0.08 0.12 0.13 0.16 0.16 0.21 0.26 0.25 0.32 0.26 0.09 0.04 0.04 0.08 0.16 0.15 0.17 0.37 0.74 0.90 0.85 0.76 0.66
0.00 0.00 0.00 0.00 0.00 0.00 0.00 0.01 0.02 0.03 0.03 0.04 0.05 0.06 0.08 0.10 0.10 0.09 0.07 0.07 0.09 0.10 0.13 0.18 0.20 0.20 0.20 0.19 0.31 0.26 0.12 0.09 0.09 0.06 0.09 0.08 0.19 0.38 0.62 0.81 0.90 0.83 0.77
0.00 0.00 0.00 0.00 0.00 0.00 0.00 0.00 0.01 0.02 0.04 0.06 0.07 0.10 0.14 0.16 0.15 0.12 0.10 0.09 0.09 0.09 0.12 0.16 0.21 0.20 0.25 0.39 0.53 0.42 0.28 0.22 0.13 0.07 0.04 0.05 0.14 0.29 0.47 0.64 0.83 0.93 0.91
0.00 0.00 0.00 0.00 0.00 0.00 0.00 0.00 0.00 0.00 0.02 0.04 0.07 0.09 0.11 0.13 0.11 0.10 0.07 0.06 0.07 0.09 0.11 0.14 0.17 0.21 0.24 0.31 0.36 0.33 0.27 0.24 0.17 0.12 0.07 0.06 0.09 0.15 0.28 0.43 0.62 0.86 0.94
0.00 0.00 0.00 0.00 0.00 0.00 0.00 0.00 0.00 0.00 0.00 0.01 0.02 0.03 0.04 0.05 0.06 0.06 0.04 0.03 0.03 0.05 0.07 0.08 0.10 0.12 0.16 0.20 0.20 0.21 0.22 0.21 0.17 0.16 0.14 0.10 0.09 0.11 0.17 0.28 0.40 0.63 0.86
0.00 0.00 0.00 0.00 0.00 0.00 0.00 0.00 0.00 0.00 0.00 0.00 0.01 0.01 0.01 0.01 0.02 0.02 0.01 0.01 0.01 0.02 0.03 0.06 0.06 0.07 0.09 0.14 0.14 0.14 0.15 0.14 0.13 0.14 0.15 0.15 0.12 0.11 0.16 0.23 0.30 0.40 0.63
0.00 0.00 0.00 0.00 0.00 0.00 0.00 0.00 0.00 0.00 0.00 0.00 0.00 0.00 0.00 0.00 0.00 0.00 0.01 0.01 0.00 0.01 0.05 0.10 0.13 0.15 0.15 0.17 0.16 0.18 0.17 0.16 0.15 0.17 0.18 0.18 0.18 0.16 0.17 0.27 0.31 0.33 0.45
0.00 0.00 0.00 0.00 0.00 0.00 0.00 0.00 0.00 0.00 0.00 0.00 0.00 0.00 0.00 0.01 0.02 0.02 0.02 0.01 0.01 0.01 0.05 0.10 0.17 0.20 0.20 0.22 0.22 0.25 0.26 0.26 0.21 0.22 0.24 0.21 0.21 0.20 0.19 0.23 0.32 0.36 0.45
0.00 0.00 0.00 0.00 0.00 0.00 0.00 0.00 0.00 0.00 0.00 0.00 0.00 0.00 0.00 0.01 0.02 0.03 0.03 0.03 0.02 0.03 0.05 0.09 0.13 0.17 0.20 0.24 0.26 0.28 0.33 0.35 0.32 0.28 0.25 0.23 0.23 0.21 0.22 0.24 0.28 0.31 0.41
0.00 0.00 0.00 0.00 0.00 0.00 0.00 0.00 0.00 0.00 0.00 0.00 0.00 0.00 0.00 0.00 0.01 0.01 0.02 0.03 0.04 0.06 0.08 0.10 0.13 0.15 0.18 0.24 0.29 0.29 0.34 0.36 0.35 0.31 0.29 0.30 0.30 0.24 0.23 0.24 0.26 0.26 0.29
0.00 0.00 0.00 0.00 0.00 0.00 0.00 0.00 0.00 0.00 0.00 0.00 0.00 0.00 0.00 0.00 0.00 0.00 0.00 0.01 0.02 0.04 0.07 0.10 0.11 0.11 0.12 0.17 0.21 0.20 0.20 0.23 0.27 0.26 0.25 0.28 0.32 0.35 0.34 0.31 0.29 0.28 0.29
0.00 0.00 0.00 0.00 0.00 0.00 0.00 0.00 0.00 0.00 0.00 0.00 0.00 0.00 0.00 0.00 0.00 0.00 0.00 0.00 0.00 0.01 0.01 0.02 0.03 0.05 0.05 0.08 0.15 0.19 0.16 0.15 0.16 0.17 0.18 0.22 0.28 0.35 0.39 0.40 0.39 0.36 0.32
0.00 0.00 0.00 0.00 0.00 0.00 0.00 0.00 0.00 0.00 0.00 0.00 0.00 0.00 0.00 0.00 0.00 0.00 0.00 0.00 0.00 0.01 0.01 0.01 0.02 0.03 0.04 0.04 0.08 0.22 0.28 0.20 0.14 0.12 0.14 0.16 0.19 0.21 0.24 0.29 0.33 0.36 0.37
0.00 0.00 0.00 0.00 0.00 0.00 0.00 0.00 0.00 0.00 0.00 0.00 0.00 0.00 0.00 0.00 0.00 0.00 0.00 0.00 0.01 0.01 0.01 0.01 0.02 0.03 0.05 0.05 0.05 0.10 0.19 0.22 0.24 0.15 0.06 0.06 0.08 0.10 0.12 0.14 0.18 0.23 0.28
0.00 0.00 0.00 0.00 0.00 0.00 0.00 0.00 0.00 0.00 0.00 0.00 0.00 0.00 0.00 0.00 0.00 0.00 0.01 0.01 0.01 0.01 0.01 0.02 0.02 0.03 0.05 0.07 0.09 0.09 0.08 0.09 0.17 0.26 0.12 0.03 0.03 0.04 0.07 0.10 0.12 0.17 0.21
0.00 0.00 0.00 0.00 0.00 0.00 0.00 0.00 0.00 0.00 0.00 0.00 0.00 0.00 0.00 0.00 0.00 0.01 0.01 0.01 0.02 0.02 0.02 0.03 0.04 0.05 0.06 0.07 0.09 0.11 0.14 0.16 0.15 0.22 0.20 0.08 0.05 0.03 0.05 0.06 0.08 0.13 0.19

GEFSSE_prec_meanprecacc_072.txt.gz
Total_Precipitation_Accumulation
0.05 0.05 0.11 0.12 0.12 0.10 0.09 0.08 0.07 0.07 0.07 0.07 0.10 0.12 0.13 0.13 0.13 0.14 0.15 0.20 0.22 0.17 0.17 0.20 0.18 0.16 0.16 0.16 0.17 0.16 0.12 0.10 0.09 0.11 0.14 0.17 0.14 0.09 0.09 0.11 0.10 0.17 0.20
0.04 0.05 0.07 0.07 0.07 0.06 0.06 0.05 0.05 0.05 0.05 0.05 0.06 0.08 0.10 0.12 0.13 0.14 0.17 0.21 0.25 0.20 0.19 0.20 0.22 0.24 0.22 0.22 0.23 0.22 0.14 0.10 0.09 0.09 0.09 0.12 0.13 0.09 0.08 0.10 0.11 0.24 0.26
0.02 0.03 0.04 0.04 0.05 0.04 0.04 0.04 0.04 0.04 0.04 0.04 0.04 0.05 0.07 0.10 0.13 0.15 0.18 0.19 0.22 0.25 0.24 0.23 0.32 0.35 0.32 0.31 0.29 0.26 0.20 0.11 0.07 0.07 0.07 0.15 0.19 0.15 0.12 0.11 0.10 0.15 0.20
0.01 0.02 0.02 0.03 0.04 0.04 0.04 0.04 0.03 0.03 0.04 0.04 0.04 0.04 0.06 0.08 0.11 0.15 0.21 0.23 0.26 0.34 0.37 0.40 0.47 0.44 0.39 0.35 0.31 0.27 0.26 0.17 0.09 0.06 0.05 0.15 0.28 0.27 0.21 0.17 0.12 0.13 0.17
0.00 0.01 0.02 0.03 0.04 0.04 0.04 0.04 0.04 0.03 0.04 0.05 0.04 0.04 0.05 0.07 0.10 0.14 0.17 0.22 0.29 0.40 0.41 0.40 0.43 0.42 0.38 0.36 0.31 0.33 0.37 0.27 0.13 0.05 0.04 0.10 0.24 0.34 0.27 0.25 0.19 0.15 0.15
0.00 0.00 0.01 0.03 0.04 0.04 0.05 0.05 0.04 0.04 0.04 0.05 0.05 0.05 0.05 0.06 0.08 0.11 0.14 0.15 0.20 0.27 0.29 0.33 0.37 0.38 0.36 0.33 0.29 0.32 0.41 0.37 0.15 0.04 0.05 0.08 0.19 0.33 0.30 0.28 0.24 0.18 0.15
0.00 0.00 0.00 0.02 0.03 0.04 0.05 0.05 0.05 0.04 0.04 0.05 0.06 0.07 0.07 0.07 0.09 0.10 0.10 0.10 0.11 0.14 0.18 0.27 0.35 0.40 0.40 0.34 0.29 0.34 0.43 0.34 0.13 0.10 0.12 0.12 0.17 0.23 0.34 0.34 0.27 0.23 0.20
0.00 0.00 0.00 0.01 0.02 0.03 0.05 0.05 0.06 0.06 0.06 0.06 0.07 0.09 0.09 0.10 0.12 0.14 0.12 0.10 0.09 0.09 0.12 0.18 0.29 0.47 0.47 0.35 0.33 0.39 0.38 0.21 0.08 0.08 0.11 0.15 0.18 0.29 0.57 0.63 0.43 0.31 0.27
0.00 0.00 0.00 0.00 0.00 0.01 0.03 0.05 0.07 0.08 0.09 0.09 0.09 0.09 0.10 0.10 0.11 0.15 0.14 0.13 0.14 0.13 0.12 0.14 0.22 0.42 0.45 0.38 0.38 0.43 0.31 0.12 0.04 0.11 0.10 0.19 0.17 0.37 0.70 0.78 0.64 0.44 0.33
0.00 0.00 0.00 0.00 0.00 0.01 0.02 0.04 0.07 0.09 0.09 0.09 0.08 0.07 0.07 0.08 0.08 0.10 0.10 0.09 0.11 0.15 0.14 0.13 0.15 0.27 0.34 0.35 0.43 0.40 0.18 0.06 0.02 0.07 0.17 0.17 0.15 0.39 0.78 0.87 0.79 0.63 0.48
0.00 0.00 0.00 0.00 0.00 0.00 0.01 0.03 0.05 0.06 0.06 0.06 0.06 0.07 0.08 0.07 0.07 0.07 0.06 0.05 0.08 0.12 0.13 0.16 0.16 0.21 0.26 0.25 0.32 0.26 0.09 0.04 0.04 0.08 0.16 0.15 0.17 0.37 0.74 0.90 0.85 0.76 0.66
0.00 0.00 0.00 0.00 0.00 0.00 0.00 0.01 0.02 0.03 0.03 0.04 0.05 0.06 0.08 0.10 0.10 0.09 0.07 0.07 0.09 0.10 0.13 0.18 0.20 0.20 0.20 0.19 0.31 0.26 0.12 0.09 0.09 0.06 0.09 0.08 0.19 0.38 0.62 0.81 0.90 0.83 0.78
0.00 0.00 0.00 0.00 0.00 0.00 0.00 0.00 0.01 0.02 0.04 0.06 0.07 0.10 0.14 0.16 0.15 0.12 0.10 0.09 0.09 0.09 0.12 0.16 0.21 0.20 0.25 0.39 0.53 0.42 0.28 0.22 0.13 0.07 0.04 0.05 0.14 0.29 0.47 0.64 0.83 0.94 0.92
0.00 0.00 0.00 0.00 0.00 0.00 0.00 0.00 0.00 0.00 0.02 0.04 0.07 0.09 0.11 0.13 0.11 0.10 0.07 0.06 0.07 0.09 0.11 0.14 0.17 0.21 0.24 0.31 0.36 0.33 0.27 0.24 0.17 0.12 0.07 0.06 0.09 0.15 0.28 0.43 0.63 0.87 0.95
0.00 0.00 0.00 0.00 0.00 0.00 0.00 0.00 0.00 0.00 0.00 0.01 0.02 0.03 0.04 0.05 0.06 0.06 0.04 0.03 0.03 0.05 0.07 0.08 0.10 0.12 0.16 0.20 0.20 0.21 0.22 0.21 0.17 0.16 0.14 0.10 0.09 0.11 0.17 0.28 0.40 0.64 0.87
0.00 0.00 0.00 0.00 0.00 0.00 0.00 0.00 0.00 0.00 0.00 0.00 0.01 0.01 0.01 0.01 0.02 0.02 0.01 0.01 0.01 0.02 0.03 0.06 0.06 0.07 0.09 0.14 0.14 0.14 0.15 0.14 0.13 0.14 0.15 0.15 0.12 0.11 0.16 0.23 0.30 0.41 0.65
0.00 0.00 0.00 0.00 0.00 0.00 0.00 0.00 0.00 0.00 0.00 0.00 0.00 0.00 0.00 0.00 0.00 0.00 0.01 0.01 0.00 0.01 0.05 0.10 0.13 0.15 0.15 0.17 0.16 0.18 0.17 0.16 0.15 0.17 0.18 0.18 0.18 0.16 0.17 0.27 0.32 0.34 0.46
0.00 0.00 0.00 0.00 0.00 0.00 0.00 0.00 0.00 0.00 0.00 0.00 0.00 0.00 0.00 0.01 0.02 0.02 0.02 0.01 0.01 0.01 0.05 0.10 0.17 0.20 0.20 0.22 0.22 0.25 0.26 0.26 0.21 0.22 0.24 0.21 0.21 0.20 0.19 0.23 0.32 0.37 0.46
0.00 0.00 0.00 0.00 0.00 0.00 0.00 0.00 0.00 0.00 0.00 0.00 0.00 0.00 0.00 0.01 0.02 0.03 0.03 0.03 0.02 0.03 0.05 0.09 0.13 0.17 0.20 0.24 0.26 0.28 0.33 0.35 0.32 0.28 0.25 0.23 0.23 0.21 0.22 0.24 0.28 0.31 0.42
0.00 0.00 0.00 0.00 0.00 0.00 0.00 0.00 0.00 0.00 0.00 0.00 0.00 0.00 0.00 0.00 0.01 0.01 0.02 0.03 0.04 0.06 0.08 0.10 0.13 0.15 0.18 0.24 0.29 0.29 0.34 0.36 0.35 0.31 0.29 0.30 0.30 0.24 0.23 0.24 0.26 0.27 0.29
0.00 0.00 0.00 0.00 0.00 0.00 0.00 0.00 0.00 0.00 0.00 0.00 0.00 0.00 0.00 0.00 0.00 0.00 0.00 0.01 0.02 0.04 0.07 0.10 0.11 0.11 0.12 0.17 0.21 0.20 0.20 0.23 0.27 0.26 0.25 0.28 0.32 0.35 0.34 0.31 0.29 0.28 0.29
0.00 0.00 0.00 0.00 0.00 0.00 0.00 0.00 0.00 0.00 0.00 0.00 0.00 0.00 0.00 0.00 0.00 0.00 0.00 0.00 0.00 0.01 0.01 0.02 0.03 0.05 0.05 0.08 0.15 0.20 0.17 0.15 0.16 0.17 0.18 0.22 0.28 0.35 0.39 0.40 0.39 0.36 0.33
0.00 0.00 0.00 0.00 0.00 0.00 0.00 0.00 0.00 0.00 0.00 0.00 0.00 0.00 0.00 0.00 0.00 0.00 0.00 0.00 0.00 0.01 0.01 0.01 0.02 0.03 0.04 0.04 0.08 0.23 0.31 0.23 0.15 0.12 0.14 0.16 0.19 0.21 0.24 0.29 0.33 0.37 0.37
0.00 0.00 0.00 0.00 0.00 0.00 0.00 0.00 0.00 0.00 0.00 0.00 0.00 0.00 0.00 0.00 0.00 0.00 0.00 0.00 0.01 0.01 0.01 0.01 0.02 0.03 0.05 0.06 0.06 0.11 0.20 0.25 0.29 0.19 0.07 0.06 0.08 0.10 0.12 0.14 0.19 0.23 0.28
0.00 0.00 0.00 0.00 0.00 0.00 0.00 0.00 0.00 0.00 0.00 0.00 0.00 0.00 0.00 0.00 0.00 0.00 0.01 0.01 0.01 0.01 0.01 0.02 0.02 0.03 0.05 0.07 0.10 0.10 0.10 0.11 0.19 0.31 0.15 0.03 0.03 0.04 0.07 0.10 0.13 0.17 0.22
0.00 0.00 0.00 0.00 0.00 0.00 0.00 0.00 0.00 0.00 0.00 0.00 0.00 0.00 0.00 0.00 0.00 0.01 0.01 0.01 0.02 0.02 0.02 0.03 0.04 0.05 0.06 0.08 0.10 0.13 0.17 0.21 0.20 0.27 0.24 0.10 0.05 0.03 0.05 0.06 0.09 0.14 0.20